Showing default

UPMSAT-2, 46276

Orbit data source: Space-Track

UPMSAT-2, 46276 is a payload satellite owned by IDR/UPM (ES) in LEO that was launched on Thu, 03 Sep 2020 UTC via a VEGA launch vehicle from the French Guiana (FRGUI). Payload-class satellites include a variety of spacecraft equipped with specific instruments for various scientific and technological missions. These include communications satellites like Starlink; space stations such as the ISS; scientific satellites like the Hubble; Earth observation satellites from companies like Planet Labs, Umbra, and HawkEye 360; GPS; miniature CubeSats for education and research; and military/defense satellites.

Not visible in the next 10 days
Identifier
46276, 2020-061E
Orbit
LEO
Country
Flag of ESES / SPN
Related business
Manufacturer
IDR/UPM
Mission
Decayed Amateur Technology
Bus & Motor
UPMSAT-2, Unknown motor
Mass
45 kg wet, 45 kg dry
Launch date (UTC)
2020-09-03 (5 years ago)
Launch vehicle
VEGA
Launch site
French Guiana (FRGUI)
Object type
Payload
Rocket body
Debris
Shape & HBR
Box, Unknown HBR
Radar Cross Section
0.425 m², Medium (>0.1 m² and < 1m²)

Expand to show TLE details & history
Last TLE update: 5 days ago

TLE from 5 days ago
0 UPMSAT-2
1 46276U 20061E   25284.11510829  .12115553  24945-5  13983-3 0  9991
2 46276  97.2106   5.1352 0012001 257.8540 102.1421 16.49625583285008
Epoch: 2025-10-11T02:45Z
TLE epoch observation values (Epoch: 2025-10-11T02:45:45.356Z)
Latitude
0.00001°
Longitude
-56.25501°
Altitude
145.246 km
Speed
7.818 km/s
True Right ascension
00h 20m 32s
True Declination
0° 00' 00"
Sunlit
Object was in full shadow at epoch
Visualization orbit readout
Latitude
Unknown
Longitude
Unknown
Altitude
Unknown
Speed
Unknown
Apparent Right ascension
Unknown
Apparent Declination
Unknown
Sunlit
N/A
Visualization observer readout
Local Sidereal Time
10:39:15
Azimuth
Unknown
Elevation
Unknown
Doppler factor
Unknown
Orbital elements
Apogee altitude
144.927 km
Perigee altitude
129.289 km
Semi-major axis
6,515.245 km
Eccentricity
0.0012
Inclination
97.2106°
RAAN
5.1352°
Arg. of periapsis
257.854°
True anomaly
102.2765°
Mean anomaly
102.1421°
Eccentric anomaly
102.20931°
Mean motion
4.12712 °/min
Orbital period
87.23 mins
BSTAR
0.00013983
Loading maneuver chart data...
Computing Atmospheric mass density...

Documentation

Showing up to 5 results
|